Portada
METAR-TAF:

METAR-TAF

Aeroports :

Laurinburg-Maxton Airport

Maxton, Carolina del Nord, Estats Units d'Amèrica

latitud: 34-47-29N, longitud: 079-22-05W, altitud: 67 m

Observació

L'informe es va fer fa 31 minuts, a les 14:52 UTC
Vent 12 kt del Nord/Nord-Est
Temperatura 9°C
Humitat 87%
Pressió 1022 hPa
Visibilitat: 11.3 km
Cel cobert a una alçada de 600 ft

METAR: KMEB 151452Z AUTO 03012KT 7SM OVC006 09/07 A3017 RMK AO2 RAE46 SLP218 P0001 60008 T00890067 58006

Hora: 10:23 (15:23 UTC)


TAF: manca

Observacions i pronòstics meteorològics de més de 4000 aeroports (METAR i TAF).

Les estacions disponibles són els punts grocs i vermells al mapa.

Posi el ratolí al punt desitjat per veure el nom de l'estació.

Feu clic per veure les observacions i els pronòstics meteorològics.

Per canviar el mapa: feu clic els botons verds amb una creu de color negre per apropar; al botó verd amb un guió per allunyar la imatge; o en les fletxes verdes per a mapes adjacents.


METAR-TAF: